Location: Burgerwiesen
(48.6500°N, 15.6167°E)
Time: 13:45:17
(UTC+00:00)

ERBS - Pass Details

Date: 09 April 2020
Orbit: 410 x 426 km, 57.0° (Epoch: 25 May)

Event Time Altitude Azimuth Distance (km) Brightness Sun altitude
Rises 18:33:58 0° 306° (NW) 2,392 8.0 -9.2°
Reaches altitude 10° 18:36:09 10° 314° (NW) 1,526 6.4 -9.5°
Maximum altitude 18:39:23 39° 26° (NNE) 655 3.2 -10.0°
Enters shadow 18:42:00 14° 93° (E) 1,292 4.1 -10.4°
